Погода в Семрине

Россия / Санкт-Петербург и Ленинградская область     59°32′30″N   30°23′12″E
темп.,
°C
ветер,
м/с
пор.,
м/с
влажн.,
%
обл.,
%
осадки,
мм/ч
давл.,
гПа
погр.,
м
28 июля, ср
ср2800:00+19вюв2366100 0.0 101545
03:00+17юв2669100 0.0 1014106
06:00+18юв2667100 0.0 1012132
09:00+22ю3463100 0.1 1011434
12:00+25ююз2252100 0.0 10101050
15:00+21ююз1286100 1.0 1009118
18:00+22ююз3678100 0.8 1008490
21:00+20зюз389091 8.8 1006190
29 июля, чт
чт2900:00+17зюз229773 1.8 100626
03:00+16юз2497100 2.2 100576
06:00+16зюз3109474 0.3 1004236
09:00+19зюз41078100 0.3 1004497
12:00+24зюз465046 0.0 10031473
15:00+26з4744100 0.4 10022229
18:00+22з276867 0.2 1002478
21:00+19зсз2279100 0.3 100128
30 июля, пт
пт3000:00+16зюз2290100 0.0 100243
03:00+15юз310915 0.0 1001300
06:00+15юз3108682 0.0 1001461
09:00+19юз486554 0.0 10011299
12:00+22юз584292 0.0 10002339
15:00+22зюз6104721 0.0 10002087
18:00+22ююз4948100 0.0 9991820
21:00+18юз395795 0.0 998607
31 июля, сб
сб3100:00+13ю3119219 0.4 998274
03:00+13ююз51387100 0.6 996620
06:00+13ююз51295100 1.1 996728
09:00+17зюз5108422 1.4 9961024
12:00+21з694927 0.1 9981902
15:00+24з593817 0.1 9992212
18:00+24зюз365078 0.0 10001603
21:00+17зюз25872 0.4 1001123
1 августа, вс
вс100:00+15юз2597100 0.0 1001102
03:00+14ю2597100 0.0 1001113
06:00+15ю3997100 1.8 1000272
09:00+18юз468561 2.2 999687
12:00+22юз585081 0.1 9991905
15:00+22юз6105365 0.1 10001826
18:00+22зюз511536 0.6 10011915
21:00+18зюз511623 0.6 1002988